Wrangell, AK

12:57 AM AKST on January 20, 2018 (GMT -0900)
Wrangell

Weather History for PAWG - January, 2013

Change the Weather History Date:

Sunday, January 20, 2013

  Actual Average Record
Temperature  
Mean Temperature 37 °F -  
Max Temperature 39 °F 37 °F 52 °F (1976)
Min Temperature 35 °F 28 °F 3 °F (1952)
Degree Days  
Heating Degree Days 28    
Moisture  
Dew Point 30 °F    
Average Humidity 75    
Maximum Humidity 87    
Minimum Humidity 65    
Precipitation  
Precipitation 0.00 in - - ()
Sea Level Pressure  
Sea Level Pressure 30.28 in    
Wind  
Wind Speed 4 mph (ESE)    
Max Wind Speed 12 mph    
Max Gust Speed -    
Visibility 10 miles    
Events      
Averages and records for this station are not official NWS values.
T = Trace of Precipitation, MM = Missing Value Source: NWS Daily Summary

Daily Weather History Graph

Daily Weather History Graph

Search for Another Location

Airport or City:

Trip Planner

Search our weather history database for the weather conditions in past years. The results will help you decide how hot, cold, wet, or windy it might be!

Date:

Astronomy

Jan. 20, 2013 Rise Set
Actual Time 8:06 AM AKST 3:55 PM AKST
Civil Twilight 7:21 AM AKST 4:40 PM AKST
Nautical Twilight 6:34 AM AKST 5:27 PM AKST
Astronomical Twilight 5:50 AM AKST 6:12 PM AKST
Moon 11:03 AM AKST 2:40 AM AKST
Length of Visible Light 9h 18m
Length of Day
7h 49m
Waxing Gibbous, 67% of the Moon is Illuminated
Jan 20
Waxing Gibbous
Jan 26
Full
Feb 3
Last Quarter
Feb 9
New
Feb 17
First Quarter

Hourly Weather History & Observations

Time (AKST) Temp. Windchill Dew Point Humidity Pressure Visibility Wind Dir Wind Speed Gust Speed Precip Events Conditions
12:16 AM 37.4 °F - 30.2 °F 75% 30.32 in 10.0 mi Calm Calm - N/A   Partly Cloudy
12:36 AM 37.4 °F - 28.4 °F 70% 30.32 in 10.0 mi Calm Calm - N/A   Partly Cloudy
12:56 AM 37.4 °F - 30.2 °F 75% 30.32 in 10.0 mi Calm Calm - N/A   Clear
1:16 AM 37.4 °F 33.8 °F 28.4 °F 70% 30.33 in 10.0 mi West 4.6 mph - N/A   Clear
1:36 AM 39.2 °F 37.0 °F 28.4 °F 65% 30.32 in 10.0 mi East 3.5 mph - N/A   Clear
1:56 AM 37.4 °F 34.9 °F 30.2 °F 75% 30.32 in 10.0 mi SE 3.5 mph - N/A   Clear
2:16 AM 37.4 °F 32.8 °F 28.4 °F 70% 30.32 in 10.0 mi South 5.8 mph - N/A   Clear
2:36 AM 37.4 °F 32.1 °F 30.2 °F 75% 30.32 in 10.0 mi ENE 6.9 mph - N/A   Clear
3:16 AM 37.4 °F 32.8 °F 30.2 °F 75% 30.32 in 10.0 mi SSE 5.8 mph - N/A   Clear
3:36 AM 35.6 °F 32.8 °F 28.4 °F 75% 30.32 in 10.0 mi SE 3.5 mph - N/A   Clear
3:56 AM 37.4 °F 32.8 °F 30.2 °F 75% 30.31 in 10.0 mi SE 5.8 mph - N/A   Clear
4:16 AM 35.6 °F 29.9 °F 30.2 °F 81% 30.31 in 10.0 mi ESE 6.9 mph - N/A   Clear
4:36 AM 35.6 °F 30.7 °F 30.2 °F 81% 30.31 in 10.0 mi SE 5.8 mph - N/A   Clear
4:56 AM 35.6 °F 29.9 °F 30.2 °F 81% 30.31 in 10.0 mi SE 6.9 mph - N/A   Clear
5:16 AM 37.4 °F 32.8 °F 28.4 °F 70% 30.30 in 10.0 mi SE 5.8 mph - N/A   Clear
5:36 AM 35.6 °F 28.6 °F 28.4 °F 75% 30.30 in 10.0 mi SE 9.2 mph - N/A   Clear
5:56 AM 35.6 °F 30.7 °F 28.4 °F 75% 30.30 in 10.0 mi SE 5.8 mph - N/A   Clear
6:16 AM 35.6 °F 29.2 °F 28.4 °F 75% 30.30 in 10.0 mi SSE 8.1 mph - N/A   Clear
6:36 AM 35.6 °F 29.2 °F 28.4 °F 75% 30.29 in 10.0 mi SE 8.1 mph - N/A   Clear
6:56 AM 37.4 °F 31.4 °F 28.4 °F 70% 30.29 in 10.0 mi SE 8.1 mph - N/A   Clear
7:16 AM 35.6 °F 29.2 °F 30.2 °F 81% 30.29 in 10.0 mi SE 8.1 mph - N/A   Scattered Clouds
7:36 AM 37.4 °F 32.1 °F 30.2 °F 75% 30.30 in 10.0 mi ESE 6.9 mph - N/A   Scattered Clouds
7:56 AM 37.4 °F 33.8 °F 30.2 °F 75% 30.31 in 10.0 mi SE 4.6 mph - N/A   Partly Cloudy
8:16 AM 35.6 °F 29.2 °F 28.4 °F 75% 30.30 in 10.0 mi ESE 8.1 mph - N/A   Partly Cloudy
8:36 AM 35.6 °F 29.2 °F 30.2 °F 81% 30.30 in 10.0 mi SE 8.1 mph - N/A   Partly Cloudy
8:56 AM 35.6 °F 29.2 °F 30.2 °F 81% 30.30 in 10.0 mi SE 8.1 mph - N/A   Partly Cloudy
9:16 AM 37.4 °F 30.8 °F 30.2 °F 75% 30.31 in 10.0 mi ESE 9.2 mph - N/A   Partly Cloudy
9:36 AM 37.4 °F 30.8 °F 30.2 °F 75% 30.31 in 10.0 mi ESE 9.2 mph - N/A   Partly Cloudy
9:56 AM 37.4 °F 30.8 °F 30.2 °F 75% 30.31 in 10.0 mi East 9.2 mph - N/A   Overcast
10:16 AM 37.4 °F 30.8 °F 30.2 °F 75% 30.32 in 10.0 mi ESE 9.2 mph - N/A   Overcast
10:36 AM 37.4 °F 31.4 °F 30.2 °F 75% 30.32 in 10.0 mi East 8.1 mph - N/A   Overcast
10:56 AM 37.4 °F 29.8 °F 30.2 °F 75% 30.32 in 10.0 mi ESE 11.5 mph - N/A   Overcast
11:16 AM 37.4 °F 29.8 °F 30.2 °F 75% 30.30 in 10.0 mi East 11.5 mph - N/A   Overcast
11:36 AM 37.4 °F 31.4 °F 30.2 °F 75% 30.30 in 10.0 mi ESE 8.1 mph - N/A   Overcast
11:56 AM 37.4 °F 32.8 °F 30.2 °F 75% 30.30 in 10.0 mi NE 5.8 mph - N/A   Mostly Cloudy
12:16 PM 39.2 °F 35.0 °F 30.2 °F 70% 30.29 in 10.0 mi ESE 5.8 mph - N/A   Mostly Cloudy
12:36 PM 39.2 °F 35.0 °F 30.2 °F 70% 30.29 in 10.0 mi SSE 5.8 mph - N/A   Mostly Cloudy
12:56 PM 39.2 °F 32.0 °F 30.2 °F 70% 30.28 in 10.0 mi East 11.5 mph - N/A   Scattered Clouds
1:16 PM 39.2 °F 35.9 °F 32.0 °F 75% 30.29 in 10.0 mi NE 4.6 mph - N/A   Scattered Clouds
1:36 PM 37.4 °F - 28.4 °F 70% 30.28 in 10.0 mi Calm Calm - N/A   Scattered Clouds
1:56 PM 37.4 °F 33.8 °F 30.2 °F 75% 30.27 in 10.0 mi East 4.6 mph - N/A   Partly Cloudy
2:16 PM 39.2 °F 34.2 °F 32.0 °F 75% 30.27 in 10.0 mi ESE 6.9 mph - N/A   Partly Cloudy
2:36 PM 37.4 °F - 30.2 °F 75% 30.26 in 10.0 mi Calm Calm - N/A   Partly Cloudy
2:56 PM 39.2 °F 35.0 °F 30.2 °F 70% 30.26 in 10.0 mi ESE 5.8 mph - N/A   Partly Cloudy
3:16 PM 39.2 °F 34.2 °F 32.0 °F 75% 30.25 in 10.0 mi East 6.9 mph - N/A   Partly Cloudy
3:36 PM 37.4 °F - 28.4 °F 70% 30.26 in 10.0 mi Calm Calm - N/A   Partly Cloudy
3:56 PM 37.4 °F - 28.4 °F 70% 30.26 in 10.0 mi Calm Calm - N/A   Scattered Clouds
4:16 PM 37.4 °F 32.8 °F 30.2 °F 75% 30.25 in 10.0 mi ESE 5.8 mph - N/A   Scattered Clouds
4:36 PM 39.2 °F - 30.2 °F 70% 30.26 in 10.0 mi Calm Calm - N/A   Scattered Clouds
4:56 PM 37.4 °F 34.9 °F 30.2 °F 75% 30.26 in 10.0 mi NE 3.5 mph - N/A   Mostly Cloudy
5:16 PM 37.4 °F - 28.4 °F 70% 30.25 in 10.0 mi Calm Calm - N/A   Mostly Cloudy
5:36 PM 39.2 °F 33.6 °F 32.0 °F 75% 30.24 in 10.0 mi SE 8.1 mph - N/A   Mostly Cloudy
5:56 PM 39.2 °F 34.2 °F 30.2 °F 70% 30.24 in 10.0 mi SE 6.9 mph - N/A   Overcast
6:16 PM 39.2 °F 35.9 °F 32.0 °F 75% 30.24 in 10.0 mi ESE 4.6 mph - N/A   Overcast
6:36 PM 37.4 °F - 28.4 °F 70% 30.25 in 10.0 mi Calm Calm - N/A   Overcast
6:56 PM 37.4 °F - 30.2 °F 75% 30.24 in 10.0 mi Calm Calm - N/A   Overcast
7:16 PM 37.4 °F 33.8 °F 32.0 °F 81% 30.24 in 10.0 mi SE 4.6 mph - N/A   Overcast
7:36 PM 37.4 °F - 32.0 °F 81% 30.24 in 10.0 mi Calm Calm - N/A   Overcast
7:56 PM 37.4 °F 34.9 °F 30.2 °F 75% 30.23 in 10.0 mi SE 3.5 mph - N/A   Overcast
8:16 PM 39.2 °F 37.0 °F 33.8 °F 81% 30.24 in 10.0 mi SE 3.5 mph - N/A   Overcast
8:36 PM 37.4 °F - 30.2 °F 75% 30.24 in 10.0 mi Calm Calm - N/A   Overcast
8:56 PM 37.4 °F - 30.2 °F 75% 30.24 in 10.0 mi Calm Calm - N/A   Overcast
9:16 PM 37.4 °F - 30.2 °F 75% 30.25 in 10.0 mi Calm Calm - N/A   Overcast
9:36 PM 37.4 °F - 30.2 °F 75% 30.25 in 10.0 mi Calm Calm - N/A   Overcast
9:56 PM 37.4 °F - 30.2 °F 75% 30.26 in 10.0 mi Calm Calm - N/A   Overcast
10:16 PM 37.4 °F 30.3 °F 33.8 °F 87% 30.23 in 10.0 mi East 10.4 mph - N/A   Overcast
10:36 PM 39.2 °F 37.0 °F 33.8 °F 81% 30.23 in 10.0 mi SE 3.5 mph - N/A   Overcast
10:56 PM 39.2 °F 34.2 °F 33.8 °F 81% 30.23 in 10.0 mi East 6.9 mph - N/A   Overcast
11:16 PM 39.2 °F 35.0 °F 33.8 °F 81% 30.25 in 10.0 mi SE 5.8 mph - N/A   Overcast
11:36 PM 39.2 °F 34.2 °F 33.8 °F 81% 30.24 in 10.0 mi ESE 6.9 mph - N/A   Overcast
11:56 PM 39.2 °F 33.6 °F 33.8 °F 81% 30.23 in 10.0 mi ESE 8.1 mph - N/A   Overcast